Home   Weather   Hollabrunn   Past weeks

Flag for Austria Past Weather in Hollabrunn, Lower Austria, Austria — Yesterday and Last 2 Weeks

Now
59 °F

Cool.


Feels Like: 58 °F
Forecast: 47 / 72 °F
Wind: 6 mph from Northwest

Location: Retz

Current Time: Sep 28, 2016 at 12:34:06 AM

Latest Report: Sep 28, 2016 at 12:00 AM


Visibility: N/A

Pressure: 30.34 "Hg

Humidity: 72%

Dew Point: 50 °F

Location of HollabrunnLocation

Past Weather in Hollabrunn — Graph

°F

Hollabrunn Temperature Yesterday

Maximum temperature yesterday: 70 °F (at 4:00 PM)
Minimum temperature yesterday: 51 °F (at 7:00 AM)
Average temperature yesterday: 59 °F

High & Low Weather Summary for the Past Weeks

 TemperatureHumidityPressure
High85 °F (Sep 12, 5:00 PM)94% (Sep 17, 7:00 AM)30.34 "Hg (Sep 17, 7:00 AM)
Low45 °F (Sep 23, 6:00 AM)36% (Sep 22, 3:00 PM)29.74 "Hg (Sep 17, 3:00 AM)
Average63 °F66%30.04 "Hg
* Reported Sep 12 5:00 PM — Sep 27 5:00 PM, Hollabrunn, Weather by CustomWeather, © 2016

Note: Actual official high and low records may vary slightly from our data, if they occured in-between our weather recording intervals... More about our weather records

Advertising

Hollabrunn Weather History for the Previous 24 Hours

Scroll right to see more
 ConditionsComfort  
Time TempWeatherWind HumidityBarometerVisibility
5:00 PM
Tue, Sep 27
70 °FMild.1 mph40%30.26 "HgN/A
4:00 PM70 °FMild.2 mph41%30.26 "HgN/A
3:00 PM70 °FMild.3 mph43%30.27 "HgN/A
2:00 PM69 °FMild.2 mph49%30.27 "HgN/A
1:00 PM67 °FMild.2 mph55%30.28 "HgN/A
12:00 PM64 °FMild.1 mph60%30.28 "HgN/A
11:00 AM60 °FCool.1 mph66%30.28 "HgN/A
10:00 AM58 °FCool.2 mph73%30.28 "HgN/A
9:00 AM55 °FCool.2 mph78%30.27 "HgN/A
8:00 AM53 °FCool.2 mph83%30.26 "HgN/A
7:00 AM51 °FCool.3 mph85%30.25 "HgN/A
6:00 AM52 °FCool.3 mph85%30.23 "HgN/A
5:00 AM53 °FCool.3 mph84%30.22 "HgN/A
4:00 AM53 °FCool.3 mph82%30.22 "HgN/A
3:00 AM54 °FCool.3 mph80%30.21 "HgN/A
2:00 AM56 °FCool.3 mph77%30.21 "HgN/A
1:00 AM56 °FCool.3 mph75%30.20 "HgN/A
12:00 AM58 °FCool.2 mph71%30.19 "HgN/A
Weather by CustomWeather, © 2016

See weather overviewHow to use our weather pages